Tracking 25701 objects as of 3-Jul-2022
HD Live streaming from Space Station
objects crossing your sky now

FENGYUN 1C DEB

Track FENGYUN 1C DEB now!
10-day predictions


NORAD ID: 35205
Int'l Code: 1999-025DPM
Perigee: 785.5 km
Apogee: 884.6 km
Inclination: 99.0 °
Period: 101.5 minutes
Semi major axis: 7206 km
RCS: 0.0051 m2 (small)
Launch date: May 10, 1999
Source: People's Republic of China (PRC)
Launch site: Taiyaun Space Center, China (TSC)

Note: This is SATELLITE DEBRIS
aabbcc
Your satellite tracking list
Your tracking list is empty




NASA's NSSDC Master Catalog

Two Line Element Set (TLE):
1 35205U 99025DPM 22183.48121000  .00002157  00000-0  10256-2 0  9993
2 35205  99.0241 191.0325 0068792 123.6240 237.1524 14.19248727746324
Source of the keplerian elements: AFSPC